Powrót do katalogu

TITAN 3C TRANSTAGE DEB

AktywnyLEO
NORAD 1684·DEBRIS·🇺🇸 United States

Wystrzelony Oct 15, 1965 z Cape Canaveral Space Force Station

Loading…

Następne Przeloty (najbliższe 24 godziny)

TLE

ŚwieżeSource: Space-Track

Epoka: Sep 14, 2026, 09:42 UTC

1 01684U 65082AX  26257.40476186  .00001277  00000-0  32664-3 0  9999
2 01684  32.2143  27.8816 0165668 121.9627 239.7235 14.40524365155419

Śledź TITAN 3C TRANSTAGE DEB w czasie rzeczywistym z AllMySat

Download on the App Store